Location: Boss Branch
(32.3799°N, 97.2508°W)
Time: 23:19:54
(UTC+00:00)

JUGNU - Pass Details

Date: 14 December 2024
Orbit: 834 x 861 km, 20.0° (Epoch: 19 January)

Event Time Altitude Azimuth Distance (km) Brightness Sun altitude
Exits shadow 12:12:34 - 239° (WSW) 2,702 ? -14.5°
Reaches altitude 10° 12:13:41 10° 231° (SW) 2,428 ? -14.2°
Maximum altitude 12:17:20 17° 192° (SSW) 1,970 ? -13.5°
Drops below altitude 10° 12:20:59 10° 153° (SSE) 2,424 ? -12.8°
Sets 12:24:24 0° 134° (SE) 3,358 ? -12.1°
